Wind_Speed
47 54 54 44 44 46 45 41 38 37 38 36 34 32 37 46 56 60 67 70 72 74 73 71 70 66 63 61 58 56 54 53 54 55 51 46 44 43 39 37 35 34 33 36 47
46 48 55 52 44 45 48 50 46 43 41 42 39 37 34 37 43 53 58 63 64 65 65 65 63 64 60 57 56 54 53 52 53 51 46 41 41 40 39 38 35 32 30 29 34
44 47 49 53 51 49 50 48 53 50 48 44 44 42 38 37 37 42 52 58 61 61 60 58 57 56 56 55 54 52 51 51 49 47 44 41 42 41 39 42 43 38 37 33 33
43 50 53 56 56 54 49 54 52 54 48 51 47 46 43 40 36 39 44 50 53 56 57 57 57 56 54 53 51 49 50 47 45 43 41 41 40 41 42 44 44 43 41 42 39
44 43 54 53 58 61 55 54 58 60 56 54 53 51 47 46 42 40 44 46 48 51 52 53 52 52 51 50 48 49 46 46 44 42 39 39 39 38 41 43 45 45 46 47 48
45 42 47 58 59 63 65 68 62 65 64 58 56 56 54 52 47 46 45 47 46 48 50 51 51 49 48 49 47 45 43 43 42 41 40 40 39 42 45 45 48 48 49 50 52
52 46 46 53 58 63 68 73 70 66 72 68 60 59 60 57 55 50 48 46 48 47 49 51 52 50 49 47 45 44 44 43 44 42 42 40 43 45 45 48 49 52 55 57 58
56 50 49 52 62 69 74 75 76 74 71 77 72 64 65 65 62 59 53 52 53 53 54 55 55 52 52 49 47 46 45 45 44 43 42 42 44 44 45 47 49 50 54 58 61
62 57 54 53 58 67 73 80 79 78 80 76 82 77 70 70 71 64 63 61 59 58 60 61 56 53 53 52 50 48 48 46 44 45 43 42 43 43 43 45 48 50 52 55 61
65 63 61 60 60 63 69 73 83 85 84 82 79 86 80 76 77 72 71 69 67 64 63 63 59 57 56 57 56 53 48 47 47 45 43 43 42 41 41 42 43 44 47 51 55
71 67 64 64 66 65 65 68 72 79 84 88 86 88 88 84 80 82 77 76 73 70 70 67 63 61 66 63 54 52 51 50 47 44 43 43 43 40 40 40 41 40 43 48 52
74 73 70 67 69 69 68 71 74 73 73 79 87 91 94 92 90 87 86 83 82 79 77 71 65 74 66 59 57 56 53 51 48 44 42 43 41 39 41 38 39 40 44 46 50
81 79 77 78 75 77 77 81 85 83 79 80 90 94 99 97 97 94 91 89 86 84 80 78 78 73 66 64 60 58 55 54 49 46 44 42 41 38 38 38 37 40 42 45 47
88 86 84 85 85 87 84 89 88 92 91 85 92 96 102 106 103 102 98 96 92 89 88 84 80 74 70 68 64 60 59 55 52 47 46 43 40 38 36 35 39 39 41 43 42
92 88 82 76 71 76 77 79 77 79 83 84 96 99 107 110 108 108 107 105 99 97 93 88 85 79 73 72 71 65 61 57 54 49 46 42 36 42 35 34 39 35 38 40 38
88 81 74 70 65 69 69 71 72 73 63 63 92 100 110 114 113 112 115 110 106 105 97 94 91 84 78 76 71 68 62 59 56 52 45 45 38 44 36 34 36 33 33 34 32
82 75 71 66 66 64 66 67 69 58 51 58 75 98 113 117 115 116 117 113 111 107 100 98 93 88 83 79 74 70 66 62 58 53 47 49 38 43 39 36 35 32 29 27 26
74 71 65 60 56 56 56 58 57 48 57 60 71 85 105 118 115 116 120 119 117 113 109 104 98 91 88 81 76 75 72 65 61 55 52 50 40 41 39 38 36 32 29 27 23
71 62 57 53 49 50 49 48 42 48 61 63 69 76 86 100 114 119 120 121 118 116 111 107 103 98 94 89 84 77 72 68 63 59 55 50 45 42 39 38 36 35 33 30 27
63 54 54 47 49 49 44 37 40 47 54 59 62 70 76 87 97 115 120 119 121 117 116 111 109 105 98 92 86 80 77 73 66 61 55 52 49 45 40 40 38 37 35 34 31
58 54 49 44 43 42 38 37 41 43 49 57 60 66 72 78 85 98 114 117 121 122 119 115 111 108 102 94 87 83 76 76 70 65 58 54 52 49 44 41 41 39 38 36 36
55 52 43 39 36 32 36 40 43 45 50 54 59 63 69 76 80 88 99 117 119 124 122 115 114 111 103 98 92 86 79 80 75 67 62 57 56 52 48 45 44 44 42 40 38
53 49 40 36 32 31 38 41 43 43 46 50 57 63 67 73 73 77 89 104 119 122 121 118 116 112 107 102 93 84 79 79 74 68 64 61 57 56 51 47 46 45 44 43 43
51 45 37 32 29 31 35 40 40 39 43 50 59 62 65 70 71 74 80 91 103 116 118 122 117 113 107 101 97 87 82 82 77 71 67 63 62 59 53 50 50 48 47 46 46
48 40 35 29 28 30 34 38 38 36 42 52 58 59 65 69 71 74 77 84 94 109 116 118 117 114 111 105 98 92 87 82 78 76 72 68 65 61 57 55 55 54 52 51 51
45 38 34 28 25 26 33 35 35 36 38 48 55 61 64 68 71 73 76 81 89 100 112 116 115 114 111 107 100 95 89 83 80 75 72 71 70 67 61 59 61 59 57 56 56
42 35 31 26 23 25 30 34 34 36 43 49 52 57 64 69 71 74 78 81 86 95 105 113 116 116 113 110 104 96 90 85 82 81 80 74 76 68 65 66 66 64 63 62 62
Wind_Direction
279 283 281 287 279 273 263 261 264 268 270 268 271 262 249 243 238 237 239 240 239 240 242 243 245 246 243 242 243 247 251 253 256 257 251 246 242 244 247 251 252 255 254 251 246
276 276 278 280 280 270 267 259 260 262 265 266 265 267 261 248 243 236 234 233 233 234 234 235 236 236 236 238 242 245 247 248 248 246 242 236 236 244 248 252 254 257 254 250 248
276 270 269 275 277 272 263 259 258 257 257 261 263 261 261 254 246 241 233 231 230 230 229 230 229 233 235 239 240 240 238 239 237 237 237 234 236 241 248 254 255 256 259 253 254
291 267 263 266 269 270 264 258 251 250 252 252 256 255 253 255 252 243 237 230 228 227 228 229 228 228 230 231 232 228 230 230 230 231 235 237 239 243 248 251 256 258 261 262 256
297 277 262 258 264 265 265 263 260 250 246 243 246 252 245 244 248 251 235 230 226 224 223 223 224 221 220 222 222 222 223 226 229 233 236 239 243 247 251 253 255 256 258 260 262
301 285 267 260 254 260 262 263 265 257 245 242 240 244 248 240 242 246 236 228 222 221 220 218 216 216 216 216 217 222 225 229 233 235 239 245 249 251 253 255 256 257 258 258 260
306 293 275 260 253 250 252 256 257 260 250 241 236 237 240 244 237 239 234 223 216 215 216 217 216 215 217 214 220 224 228 233 236 236 241 249 252 254 257 257 256 256 256 257 257
309 295 283 266 255 250 249 255 255 253 252 245 237 234 236 240 237 230 231 223 216 217 219 218 218 218 217 217 223 225 227 232 236 238 246 250 255 258 261 262 261 260 258 256 255
308 299 288 275 262 252 248 248 253 253 250 244 239 237 234 234 236 230 226 224 224 221 221 217 219 220 219 222 225 227 230 234 238 241 247 252 255 260 263 265 265 262 260 260 257
306 299 291 282 274 262 253 248 245 248 250 243 236 234 232 231 232 233 227 223 225 222 221 219 217 220 222 226 227 227 231 236 239 242 248 253 258 263 266 268 269 267 265 263 260
305 298 288 281 273 269 262 256 251 245 245 243 232 231 230 232 232 233 231 225 224 221 221 219 219 222 224 226 225 230 232 236 240 244 250 255 259 263 267 271 276 278 273 271 270
304 298 291 284 277 271 262 256 250 245 239 238 234 227 227 229 231 229 230 228 222 221 220 221 220 227 225 224 226 230 234 237 241 244 250 256 260 266 269 274 279 279 274 274 272
305 301 295 290 281 275 264 253 250 246 236 231 231 226 227 224 228 230 230 229 227 223 221 221 224 226 227 224 225 229 233 237 242 245 251 256 261 262 270 278 280 276 278 279 279
307 302 295 288 283 276 272 262 255 249 243 226 227 225 226 226 223 229 229 228 228 226 222 220 225 225 225 224 225 228 232 236 241 246 251 256 262 261 264 277 280 284 281 285 290
308 302 296 290 282 274 267 263 257 251 245 229 227 222 225 226 223 224 227 227 225 227 224 222 224 225 223 224 225 226 231 235 240 244 251 256 257 263 263 275 278 286 285 287 298
308 303 297 290 283 273 268 263 257 251 247 232 229 224 223 225 223 223 224 225 223 225 223 224 224 224 223 224 226 227 229 235 239 243 249 254 255 264 265 274 283 285 288 289 296
309 303 297 290 281 274 267 260 256 255 246 233 227 223 224 225 223 223 224 222 223 225 225 225 224 224 224 225 224 228 227 232 237 243 247 253 254 260 265 272 279 283 289 293 297
309 303 297 287 280 274 267 261 255 247 239 228 225 222 221 223 223 222 223 222 220 221 221 223 223 224 226 225 224 227 227 228 234 239 245 251 254 258 262 268 275 277 282 286 294
311 304 292 286 280 274 268 265 256 238 234 228 223 221 221 223 222 220 221 222 219 220 221 222 223 224 224 224 224 224 229 228 232 235 242 249 253 257 259 263 268 272 274 281 285
311 299 291 287 277 273 268 264 250 238 233 227 223 220 221 223 222 220 218 221 219 219 220 222 223 223 224 225 225 226 228 229 232 235 239 245 250 255 258 259 263 268 270 274 278
309 300 299 290 278 271 263 249 237 234 227 225 219 219 219 221 219 218 217 218 219 218 218 221 222 224 223 225 225 226 229 230 230 234 236 242 249 253 256 258 259 263 268 272 274
309 306 303 289 278 263 247 238 235 228 225 220 216 216 216 216 217 214 213 216 218 219 218 219 221 224 224 225 225 226 228 230 231 233 237 240 246 252 255 258 258 260 263 267 271
314 311 305 289 275 253 240 233 234 231 225 217 211 212 213 215 216 216 214 214 216 219 217 217 218 222 223 224 226 228 228 229 229 230 234 238 244 248 253 258 259 260 264 268 272
319 314 306 291 276 254 239 234 232 227 221 213 209 211 211 213 212 213 215 215 214 216 215 216 217 220 222 223 224 224 225 226 227 229 233 236 241 247 251 254 257 260 263 267 271
322 316 306 292 277 257 236 229 228 225 218 211 210 208 210 211 210 212 212 214 213 213 212 214 216 219 222 223 225 225 226 227 230 231 236 238 242 245 248 253 256 258 262 265 268
323 316 305 294 275 253 237 228 226 219 212 214 208 208 209 209 210 211 212 213 212 212 211 212 214 217 220 223 225 226 227 228 231 234 236 237 240 244 247 252 255 256 261 264 267
324 318 306 293 270 248 233 226 220 215 204 208 208 206 207 209 208 209 210 211 212 211 211 210 211 214 218 221 223 225 227 229 231 233 235 239 242 245 248 252 255 257 260 263 266
Height
10647 10645 10642 10641 10637 10636 10636 10636 10637 10637 10637 10637 10637 10636 10636 10638 10640 10643 10648 10654 10657 10664 10671 10678 10684 10689 10693 10698 10702 10705 10709 10710 10714 10719 10722 10724 10723 10726 10727 10728 10729 10731 10734 10734 10733
10633 10631 10630 10629 10629 10627 10625 10625 10625 10626 10627 10628 10629 10629 10628 10628 10629 10632 10636 10641 10645 10651 10658 10664 10670 10675 10681 10686 10690 10695 10697 10700 10705 10708 10712 10716 10718 10720 10722 10722 10723 10725 10727 10729 10728
10618 10615 10615 10614 10615 10615 10613 10612 10613 10614 10616 10618 10619 10620 10620 10619 10620 10623 10625 10630 10635 10640 10645 10652 10657 10663 10669 10674 10679 10684 10687 10692 10696 10699 10703 10708 10712 10714 10716 10716 10715 10719 10720 10722 10723
10603 10598 10597 10598 10597 10598 10598 10597 10599 10601 10603 10606 10608 10610 10610 10610 10612 10613 10616 10619 10625 10629 10635 10640 10646 10652 10657 10662 10668 10674 10678 10685 10687 10691 10695 10700 10703 10706 10708 10708 10709 10711 10713 10713 10715
10587 10582 10580 10579 10581 10582 10582 10584 10583 10585 10588 10591 10595 10598 10600 10600 10604 10605 10607 10610 10614 10620 10625 10630 10636 10641 10646 10652 10659 10664 10671 10676 10680 10684 10687 10691 10694 10698 10699 10701 10702 10705 10706 10706 10705
10571 10565 10562 10561 10561 10563 10564 10565 10566 10567 10571 10575 10580 10586 10589 10588 10594 10596 10597 10600 10605 10610 10616 10621 10626 10633 10639 10644 10650 10657 10664 10667 10671 10676 10680 10683 10687 10690 10689 10693 10693 10695 10696 10697 10697
10550 10546 10543 10541 10539 10541 10543 10544 10548 10551 10553 10558 10563 10569 10575 10576 10581 10586 10588 10590 10595 10601 10607 10613 10619 10625 10630 10636 10642 10648 10654 10658 10662 10668 10671 10675 10677 10679 10681 10681 10684 10685 10687 10687 10687
10529 10526 10522 10521 10519 10519 10520 10521 10525 10530 10533 10538 10545 10553 10557 10563 10566 10571 10577 10581 10585 10591 10598 10604 10610 10616 10622 10628 10633 10640 10645 10648 10652 10658 10662 10667 10667 10669 10669 10671 10672 10674 10675 10675 10675
10503 10500 10498 10497 10496 10495 10495 10497 10499 10503 10510 10516 10524 10532 10539 10545 10549 10559 10563 10569 10574 10580 10586 10592 10600 10607 10615 10620 10625 10630 10633 10638 10644 10647 10652 10656 10658 10660 10660 10660 10660 10662 10663 10662 10661
10480 10475 10471 10469 10468 10469 10470 10471 10475 10478 10483 10490 10501 10508 10518 10522 10531 10541 10547 10554 10560 10568 10575 10582 10589 10597 10605 10609 10612 10617 10624 10629 10632 10637 10642 10645 10649 10650 10650 10649 10649 10650 10650 10649 10648
10454 10450 10447 10443 10440 10440 10443 10443 10447 10450 10458 10462 10475 10484 10495 10503 10511 10521 10530 10538 10546 10555 10561 10568 10579 10587 10578 10590 10605 10609 10613 10617 10622 10626 10631 10635 10637 10640 10640 10639 10639 10638 10638 10637 10634
10431 10423 10419 10418 10414 10412 10415 10415 10414 10421 10431 10438 10446 10459 10468 10478 10489 10498 10509 10518 10526 10535 10544 10558 10570 10559 10574 10586 10591 10597 10603 10606 10610 10616 10621 10623 10627 10629 10628 10630 10629 10627 10626 10625 10621
10401 10393 10388 10382 10383 10381 10383 10383 10380 10386 10398 10409 10416 10434 10440 10451 10464 10477 10489 10501 10509 10520 10533 10542 10542 10553 10568 10573 10579 10585 10591 10595 10600 10606 10610 10613 10617 10620 10619 10619 10619 10616 10615 10612 10609
10369 10359 10353 10348 10346 10337 10342 10330 10338 10344 10352 10384 10384 10406 10413 10424 10442 10450 10464 10476 10491 10502 10511 10524 10530 10542 10552 10561 10568 10574 10578 10585 10589 10596 10599 10604 10607 10609 10612 10611 10607 10606 10603 10599 10595
10334 10322 10312 10307 10310 10300 10297 10294 10299 10303 10309 10352 10356 10375 10378 10389 10416 10421 10433 10444 10468 10477 10494 10511 10513 10525 10536 10543 10550 10560 10568 10574 10579 10585 10589 10594 10599 10596 10604 10602 10598 10598 10594 10589 10586
10299 10286 10277 10273 10272 10264 10264 10264 10265 10268 10293 10328 10325 10344 10348 10357 10378 10392 10399 10422 10441 10453 10476 10486 10498 10510 10522 10528 10541 10549 10557 10562 10568 10574 10582 10583 10591 10585 10593 10592 10590 10589 10586 10582 10579
10266 10255 10246 10242 10237 10233 10233 10232 10235 10254 10278 10288 10297 10311 10313 10325 10347 10362 10375 10401 10420 10440 10465 10474 10485 10499 10506 10514 10529 10539 10543 10550 10558 10566 10573 10572 10582 10578 10582 10582 10582 10581 10579 10577 10573
10242 10229 10219 10212 10209 10207 10207 10209 10216 10239 10243 10252 10260 10269 10281 10296 10319 10342 10351 10372 10396 10415 10435 10449 10466 10482 10492 10503 10516 10519 10526 10538 10545 10555 10560 10563 10572 10572 10574 10573 10573 10573 10572 10571 10569
10216 10206 10195 10192 10190 10188 10189 10190 10205 10212 10215 10226 10235 10246 10260 10274 10291 10312 10332 10354 10378 10399 10421 10436 10450 10462 10471 10482 10493 10508 10520 10526 10535 10542 10549 10556 10560 10563 10565 10565 10564 10564 10564 10564 10563
10196 10185 10177 10179 10172 10170 10173 10181 10184 10189 10196 10208 10221 10231 10242 10251 10268 10286 10307 10333 10357 10379 10398 10415 10427 10443 10454 10468 10484 10498 10504 10513 10525 10534 10540 10547 10548 10552 10556 10556 10556 10556 10557 10557 10557
10177 10166 10165 10159 10156 10156 10161 10162 10164 10170 10179 10188 10202 10213 10223 10235 10248 10267 10293 10312 10331 10354 10373 10395 10412 10426 10440 10459 10474 10483 10493 10504 10512 10521 10528 10535 10538 10540 10545 10546 10547 10547 10548 10549 10549
10160 10151 10148 10140 10140 10141 10143 10145 10149 10155 10161 10172 10185 10197 10208 10218 10231 10249 10275 10292 10310 10326 10354 10379 10393 10409 10431 10444 10454 10468 10479 10489 10499 10513 10518 10523 10525 10529 10533 10535 10537 10538 10539 10540 10541
10146 10137 10133 10127 10125 10126 10126 10132 10137 10145 10151 10163 10175 10182 10194 10207 10224 10244 10255 10268 10288 10305 10338 10361 10376 10393 10411 10425 10446 10463 10471 10480 10491 10499 10505 10509 10516 10515 10521 10525 10525 10527 10529 10530 10530
10134 10126 10120 10116 10114 10115 10117 10122 10127 10137 10145 10153 10161 10171 10184 10198 10213 10230 10244 10257 10272 10293 10320 10336 10361 10380 10401 10416 10427 10444 10452 10461 10474 10486 10493 10498 10500 10504 10511 10512 10513 10516 10518 10519 10520
10121 10114 10109 10107 10105 10106 10108 10112 10119 10128 10134 10140 10152 10166 10175 10188 10203 10216 10230 10244 10259 10276 10301 10325 10351 10366 10382 10400 10415 10428 10438 10451 10465 10472 10481 10483 10489 10495 10498 10500 10501 10501 10505 10507 10507
10111 10104 10099 10097 10098 10098 10099 10105 10112 10118 10127 10134 10146 10155 10168 10182 10195 10208 10222 10233 10248 10265 10287 10311 10335 10351 10367 10386 10400 10414 10428 10442 10453 10465 10470 10470 10473 10480 10488 10489 10486 10489 10492 10494 10494
10101 10095 10090 10089 10090 10091 10093 10098 10105 10113 10120 10127 10139 10152 10162 10168 10183 10196 10208 10222 10239 10254 10273 10294 10313 10331 10350 10368 10383 10404 10418 10430 10438 10444 10449 10460 10453 10470 10475 10473 10474 10478 10479 10480 10480